Location: Regensburg
(48.4565°N, 10.3217°E)
Time: 11:12:07
(UTC+02:00)

ISS - Pass Details

Date: 10 February 2018
Orbit: 403 x 408 km, 51.6° (Epoch: 22 September)

Event Time Altitude Azimuth Distance (km) Brightness Sun altitude
Rises 18:39:56 0° 290° (WNW) 2,323 1.2 -11.7°
Reaches altitude 10° 18:42:04 10° 283° (WNW) 1,461 0.2 -12.1°
Maximum altitude 18:45:10 40° 212° (SSW) 606 -2.6 -12.6°
Drops below altitude 10° 18:48:16 10° 141° (SE) 1,461 -1.3 -13.1°
Enters shadow 18:48:26 - 140° (SE) 1,523 -1.2 -13.1°
